,,,PA_Meas_PMT16A,,PR_Meas_QMR101_102,,RH_Meas_QMH101,,SR_Meas_QMS101,,TA_Meas_QMH101,,GenWind,,GenWind,
date,time,status,PA,status,PR,status,RH,status,SR,status,TA,status,DirAvg,status,SpdAvg,
2011-11-02, 00:00:04,VALID,997.551,VALID,0,VALID,90.0066,VALID,0,VALID,23.8378,VALID,151,VALID,1.37891,
2011-11-02, 00:01:04,VALID,997.524,VALID,0,VALID,90.1211,VALID,0,VALID,23.9159,VALID,149,VALID,1.20039,
2011-11-02, 00:02:04,VALID,997.486,VALID,0,VALID,89.9456,VALID,0,VALID,23.9354,VALID,135,VALID,1.22773,
2011-11-02, 00:03:04,VALID,997.446,VALID,0,VALID,89.7167,VALID,0,VALID,23.9549,VALID,135,VALID,0.819922,
2011-11-02, 00:04:04,VALID,997.435,VALID,0,VALID,89.6328,VALID,0,VALID,23.9549,VALID,124,VALID,0.7125,
2011-11-02, 00:05:04,VALID,997.426,VALID,0,VALID,89.587,VALID,0,VALID,23.9744,VALID,124,VALID,0.435547,
2011-11-02, 00:06:04,VALID,997.418,VALID,0,VALID,89.526,VALID,0,VALID,23.9762,VALID,124,VALID,0.433984,
2011-11-02, 00:07:04,VALID,997.439,VALID,0,VALID,89.5031,VALID,0,VALID,23.9549,VALID,124,VALID,0.203516,
2011-11-02, 00:08:04,VALID,997.431,VALID,0,VALID,89.5794,VALID,0,VALID,23.9549,VALID,124,VALID,0.0199219,
2011-11-02, 00:09:04,VALID,997.415,VALID,0,VALID,89.5565,VALID,0,VALID,23.9549,VALID,124,VALID,0.382031,
2011-11-02, 00:10:04,VALID,997.434,VALID,0,VALID,89.6099,VALID,0,VALID,23.9354,VALID,124,VALID,0.335156,
2011-11-02, 00:11:04,VALID,997.404,VALID,0,VALID,89.7167,VALID,0,VALID,23.9354,VALID,124,VALID,0.576953,
2011-11-02, 00:12:04,VALID,997.406,VALID,0,VALID,89.6709,VALID,0,VALID,23.9354,VALID,124,VALID,0.459766,
2011-11-02, 00:13:04,VALID,997.382,VALID,0,VALID,89.6023,VALID,0,VALID,23.914,VALID,124,VALID,0.48125,
2011-11-02, 00:14:04,VALID,997.345,VALID,0,VALID,89.4878,VALID,0,VALID,23.9159,VALID,124,VALID,0.236328,
2011-11-02, 00:15:04,VALID,997.358,VALID,0,VALID,89.4878,VALID,0,VALID,23.9159,VALID,124,VALID,0.314844,
2011-11-02, 00:16:04,VALID,997.326,VALID,0,VALID,89.5336,VALID,0,VALID,23.8768,VALID,124,VALID,0.265625,
2011-11-02, 00:17:04,VALID,997.309,VALID,0,VALID,89.5946,VALID,0,VALID,23.836,VALID,124,VALID,0.121875,
2011-11-02, 00:18:04,VALID,997.305,VALID,0,VALID,89.7014,VALID,0,VALID,23.8378,VALID,124,VALID,0,
2011-11-02, 00:19:04,VALID,997.276,VALID,0,VALID,89.6709,VALID,0,VALID,23.7775,VALID,124,VALID,0.021875,
2011-11-02, 00:20:04,VALID,997.249,VALID,0,VALID,89.6786,VALID,0,VALID,23.7793,VALID,124,VALID,0.0757812,
2011-11-02, 00:21:04,VALID,997.236,VALID,0,VALID,89.6938,VALID,0,VALID,23.7402,VALID,124,VALID,0.324219,
2011-11-02, 00:22:04,VALID,997.207,VALID,0,VALID,89.8006,VALID,0,VALID,23.7207,VALID,124,VALID,0.363281,
2011-11-02, 00:23:04,VALID,997.182,VALID,0,VALID,89.9532,VALID,0,VALID,23.7012,VALID,124,VALID,0.435547,
2011-11-02, 00:24:04,VALID,997.109,VALID,0,VALID,90.0143,VALID,0,VALID,23.7207,VALID,124,VALID,0.473437,
2011-11-02, 00:25:04,VALID,997.123,VALID,0,VALID,90.0143,VALID,0,VALID,23.7402,VALID,124,VALID,0.557422,
2011-11-02, 00:26:04,VALID,997.109,VALID,0,VALID,89.9914,VALID,0,VALID,23.7402,VALID,124,VALID,0.270312,
2011-11-02, 00:27:04,VALID,997.065,VALID,0,VALID,89.9532,VALID,0,VALID,23.7597,VALID,124,VALID,0.240625,
2011-11-02, 00:28:04,VALID,997.045,VALID,0,VALID,89.8464,VALID,0,VALID,23.7402,VALID,124,VALID,0.371875,
2011-11-02, 00:29:04,VALID,997.054,VALID,0,VALID,89.8006,VALID,0,VALID,23.7402,VALID,124,VALID,0.341797,
2011-11-02, 00:30:04,VALID,997.043,VALID,0,VALID,89.7091,VALID,0,VALID,23.6994,VALID,124,VALID,0.494922,
2011-11-02, 00:31:04,VALID,997.026,VALID,0,VALID,89.6175,VALID,0,VALID,23.7012,VALID,124,VALID,0.617188,
2011-11-02, 00:32:04,VALID,997.019,VALID,0,VALID,89.4726,VALID,0,VALID,23.7012,VALID,112,VALID,0.870703,
2011-11-02, 00:33:04,VALID,997.012,VALID,0,VALID,89.2666,VALID,0,VALID,23.7207,VALID,101,VALID,0.8375,
2011-11-02, 00:34:04,VALID,996.998,VALID,0,VALID,89.175,VALID,0,VALID,23.7012,VALID,101,VALID,0.808203,
2011-11-02, 00:35:04,VALID,996.962,VALID,0,VALID,89.3123,VALID,0,VALID,23.7012,VALID,101,VALID,0.625391,
2011-11-02, 00:36:04,VALID,996.933,VALID,0,VALID,89.3276,VALID,0,VALID,23.7012,VALID,101,VALID,0.542969,
2011-11-02, 00:37:04,VALID,996.914,VALID,0,VALID,89.2055,VALID,0,VALID,23.6622,VALID,101,VALID,0.401172,
2011-11-02, 00:38:04,VALID,996.911,VALID,0,VALID,89.175,VALID,0,VALID,23.6232,VALID,101,VALID,0.459766,
2011-11-02, 00:39:04,VALID,996.894,VALID,0,VALID,89.236,VALID,0,VALID,23.6232,VALID,101,VALID,0.426172,
2011-11-02, 00:40:04,VALID,996.901,VALID,0,VALID,89.3657,VALID,0,VALID,23.5841,VALID,101,VALID,0.436328,
2011-11-02, 00:41:04,VALID,996.853,VALID,0,VALID,89.442,VALID,0,VALID,23.5433,VALID,101,VALID,0.425,
2011-11-02, 00:42:04,VALID,996.832,VALID,0,VALID,89.4954,VALID,0,VALID,23.5061,VALID,101,VALID,0.420703,
2011-11-02, 00:43:04,VALID,996.819,VALID,0,VALID,89.5031,VALID,0,VALID,23.4263,VALID,101,VALID,0.35625,
2011-11-02, 00:44:04,VALID,996.821,VALID,0,VALID,89.999,VALID,0,VALID,23.3872,VALID,101,VALID,0.480469,
2011-11-02, 00:45:04,VALID,996.817,VALID,0,VALID,90.6246,VALID,0,VALID,23.4085,VALID,101,VALID,0.498047,
2011-11-02, 00:46:04,VALID,996.777,VALID,0,VALID,90.9451,VALID,0,VALID,23.389,VALID,101,VALID,0.649609,
2011-11-02, 00:47:04,VALID,996.754,VALID,0,VALID,91.09,VALID,0,VALID,23.389,VALID,101,VALID,0.564453,
2011-11-02, 00:48:04,VALID,996.745,VALID,0,VALID,91.1968,VALID,0,VALID,23.3695,VALID,101,VALID,0.445703,
2011-11-02, 00:49:04,VALID,996.698,VALID,0,VALID,91.0748,VALID,0,VALID,23.311,VALID,101,VALID,0.414844,
2011-11-02, 00:50:04,VALID,996.7,VALID,0,VALID,90.9756,VALID,0,VALID,23.2329,VALID,101,VALID,0.446875,
2011-11-02, 00:51:04,VALID,996.7,VALID,0,VALID,90.9374,VALID,0,VALID,23.1531,VALID,101,VALID,0.510938,
2011-11-02, 00:52:04,VALID,996.662,VALID,0,VALID,91.1511,VALID,0,VALID,23.0964,VALID,101,VALID,0.558984,
2011-11-02, 00:53:04,VALID,996.654,VALID,0,VALID,91.6012,VALID,0,VALID,23.0964,VALID,101,VALID,0.611719,
2011-11-02, 00:54:04,VALID,996.64,VALID,0,VALID,92.0056,VALID,0,VALID,23.0964,VALID,101,VALID,0.610937,
2011-11-02, 00:55:04,VALID,996.617,VALID,0,VALID,92.265,VALID,0,VALID,23.1159,VALID,101,VALID,0.544922,
2011-11-02, 00:56:04,VALID,996.613,VALID,0,VALID,92.4481,VALID,0,VALID,23.1159,VALID,101,VALID,0.428516,
2011-11-02, 00:57:04,VALID,996.597,VALID,0,VALID,92.5168,VALID,0,VALID,23.1159,VALID,101,VALID,0.308594,
2011-11-02, 00:58:04,VALID,996.567,VALID,0,VALID,92.5397,VALID,0,VALID,23.0964,VALID,101,VALID,0.292188,
2011-11-02, 00:59:04,VALID,996.554,VALID,0,VALID,92.6388,VALID,0,VALID,23.0769,VALID,101,VALID,0.325781,
2011-11-02, 01:00:04,VALID,996.524,VALID,0,VALID,92.6846,VALID,0,VALID,23.0769,VALID,101,VALID,0.4,
2011-11-02, 01:01:04,VALID,996.496,VALID,0,VALID,92.7609,VALID,0,VALID,23.0573,VALID,101,VALID,0.317187,
2011-11-02, 01:02:04,VALID,996.495,VALID,0,VALID,92.7914,VALID,0,VALID,23.0786,VALID,101,VALID,0.271094,
2011-11-02, 01:03:04,VALID,996.501,VALID,0,VALID,92.8143,VALID,0,VALID,23.0378,VALID,101,VALID,0.0679687,
2011-11-02, 01:04:04,VALID,996.464,VALID,0,VALID,92.8372,VALID,0,VALID,23.0183,VALID,101,VALID,0.221094,
2011-11-02, 01:05:04,VALID,996.46,VALID,0,VALID,92.8448,VALID,0,VALID,22.9793,VALID,101,VALID,0.364844,
2011-11-02, 01:06:04,VALID,996.454,VALID,0,VALID,92.8677,VALID,0,VALID,22.9793,VALID,101,VALID,0.255859,
2011-11-02, 01:07:04,VALID,996.444,VALID,0,VALID,92.8983,VALID,0,VALID,22.9988,VALID,101,VALID,0.389062,
2011-11-02, 01:08:04,VALID,996.451,VALID,0,VALID,92.9593,VALID,0,VALID,22.9581,VALID,101,VALID,0.630469,
2011-11-02, 01:09:04,VALID,996.421,VALID,0,VALID,92.9974,VALID,0,VALID,22.9988,VALID,77,VALID,0.601953,
2011-11-02, 01:10:04,VALID,996.408,VALID,0,VALID,93.0051,VALID,0,VALID,23.0396,VALID,77,VALID,0.455078,
2011-11-02, 01:11:04,VALID,996.409,VALID,0,VALID,93.0051,VALID,0,VALID,22.9988,VALID,77,VALID,0.608594,
2011-11-02, 01:12:04,VALID,996.397,VALID,0,VALID,93.0127,VALID,0,VALID,23.0378,VALID,77,VALID,0.416016,
2011-11-02, 01:13:04,VALID,996.399,VALID,0,VALID,93.0051,VALID,0,VALID,22.9988,VALID,77,VALID,0.278516,
2011-11-02, 01:14:04,VALID,996.393,VALID,0,VALID,92.9745,VALID,0,VALID,22.9793,VALID,77,VALID,0.0117188,
2011-11-02, 01:15:04,VALID,996.42,VALID,0,VALID,92.944,VALID,0,VALID,22.9403,VALID,77,VALID,0,
2011-11-02, 01:16:04,VALID,996.414,VALID,0,VALID,92.8983,VALID,0,VALID,22.9013,VALID,77,VALID,0,
2011-11-02, 01:17:04,VALID,996.432,VALID,0,VALID,92.9211,VALID,0,VALID,22.8818,VALID,77,VALID,0,
2011-11-02, 01:18:04,VALID,996.459,VALID,0,VALID,92.9288,VALID,0,VALID,22.8623,VALID,77,VALID,0,
2011-11-02, 01:19:04,VALID,996.425,VALID,0,VALID,93.0051,VALID,0,VALID,22.8623,VALID,77,VALID,0,
2011-11-02, 01:20:04,VALID,996.415,VALID,0,VALID,93.0661,VALID,0,VALID,22.8427,VALID,77,VALID,0.33125,
2011-11-02, 01:21:04,VALID,996.452,VALID,0,VALID,93.1043,VALID,0,VALID,22.8427,VALID,77,VALID,0.522266,
2011-11-02, 01:22:04,VALID,996.421,VALID,0,VALID,93.1729,VALID,0,VALID,22.8232,VALID,32,VALID,0.617578,
2011-11-02, 01:23:04,VALID,996.414,VALID,0,VALID,93.234,VALID,0,VALID,22.8427,VALID,32,VALID,0.420312,
2011-11-02, 01:24:04,VALID,996.393,VALID,0,VALID,93.2416,VALID,0,VALID,22.8232,VALID,32,VALID,0.376953,
2011-11-02, 01:25:04,VALID,996.368,VALID,0,VALID,93.2568,VALID,0,VALID,22.8037,VALID,32,VALID,0.341797,
2011-11-02, 01:26:04,VALID,996.355,VALID,0,VALID,93.2645,VALID,0,VALID,22.8037,VALID,32,VALID,0.297266,
2011-11-02, 01:27:04,VALID,996.334,VALID,0,VALID,93.3026,VALID,0,VALID,22.7842,VALID,32,VALID,0.282031,
2011-11-02, 01:28:04,VALID,996.335,VALID,0,VALID,93.295,VALID,0,VALID,22.7647,VALID,32,VALID,0.303125,
2011-11-02, 01:29:04,VALID,996.309,VALID,0,VALID,93.356,VALID,0,VALID,22.7842,VALID,32,VALID,0.2875,
2011-11-02, 01:30:04,VALID,996.28,VALID,0,VALID,93.4171,VALID,0,VALID,22.8037,VALID,32,VALID,0.382813,
2011-11-02, 01:31:04,VALID,996.274,VALID,0,VALID,93.4628,VALID,0,VALID,22.7825,VALID,32,VALID,0.400781,
2011-11-02, 01:32:04,VALID,996.299,VALID,0,VALID,93.5239,VALID,0,VALID,22.8232,VALID,32,VALID,0.419531,
2011-11-02, 01:33:04,VALID,996.289,VALID,0,VALID,93.5773,VALID,0,VALID,22.8232,VALID,32,VALID,0.277734,
2011-11-02, 01:34:04,VALID,996.289,VALID,0,VALID,93.5697,VALID,0,VALID,22.7842,VALID,32,VALID,0.296094,
2011-11-02, 01:35:04,VALID,996.331,VALID,0,VALID,93.5697,VALID,0.104696,VALID,22.724,VALID,32,VALID,0.418359,
2011-11-02, 01:36:04,VALID,996.295,VALID,0,VALID,93.562,VALID,0,VALID,22.7257,VALID,32,VALID,0.366406,
2011-11-02, 01:37:04,VALID,996.343,VALID,0,VALID,93.6002,VALID,0,VALID,22.7452,VALID,32,VALID,0.218359,
2011-11-02, 01:38:04,VALID,996.346,VALID,0,VALID,93.6231,VALID,0,VALID,22.7647,VALID,32,VALID,0.10625,
2011-11-02, 01:39:04,VALID,996.353,VALID,0,VALID,93.6536,VALID,0,VALID,22.7452,VALID,32,VALID,0,
2011-11-02, 01:40:04,VALID,996.361,VALID,0,VALID,93.6612,VALID,0,VALID,22.7062,VALID,32,VALID,0,
2011-11-02, 01:41:04,VALID,996.382,VALID,0,VALID,93.6841,VALID,0,VALID,22.6867,VALID,32,VALID,0,
2011-11-02, 01:42:04,VALID,996.367,VALID,0,VALID,93.7146,VALID,0,VALID,22.6867,VALID,32,VALID,0,
2011-11-02, 01:43:04,VALID,996.359,VALID,0,VALID,93.7299,VALID,0,VALID,22.6867,VALID,32,VALID,0,
2011-11-02, 01:44:04,VALID,996.371,VALID,0,VALID,93.7528,VALID,0,VALID,22.7062,VALID,32,VALID,0,
2011-11-02, 01:45:04,VALID,996.355,VALID,0,VALID,93.7985,VALID,0,VALID,22.7469,VALID,32,VALID,0.220703,
2011-11-02, 01:46:04,VALID,996.344,VALID,0,VALID,93.8214,VALID,0,VALID,22.7647,VALID,32,VALID,0.297656,
2011-11-02, 01:47:04,VALID,996.35,VALID,0,VALID,93.8214,VALID,0,VALID,22.7257,VALID,32,VALID,0.580078,
2011-11-02, 01:48:04,VALID,996.303,VALID,0,VALID,93.8367,VALID,0,VALID,22.7062,VALID,32,VALID,0.674609,
2011-11-02, 01:49:04,VALID,996.308,VALID,0,VALID,93.852,VALID,0,VALID,22.7647,VALID,32,VALID,0.845703,
2011-11-02, 01:50:04,VALID,996.29,VALID,0,VALID,93.8748,VALID,0,VALID,22.8037,VALID,32,VALID,0.826172,
2011-11-02, 01:51:04,VALID,996.308,VALID,0,VALID,93.9054,VALID,0,VALID,22.8232,VALID,32,VALID,0.815234,
2011-11-02, 01:52:04,VALID,996.297,VALID,0,VALID,93.8901,VALID,0,VALID,22.8037,VALID,32,VALID,0.858203,
2011-11-02, 01:53:04,VALID,996.295,VALID,0,VALID,93.8748,VALID,0,VALID,22.7647,VALID,35,VALID,1.01445,
2011-11-02, 01:54:04,VALID,996.266,VALID,0,VALID,93.7985,VALID,0,VALID,22.6867,VALID,36,VALID,0.960938,
2011-11-02, 01:55:04,VALID,996.264,VALID,0,VALID,93.7451,VALID,0,VALID,22.6672,VALID,36,VALID,0.954687,
2011-11-02, 01:56:04,VALID,996.249,VALID,0,VALID,93.707,VALID,0,VALID,22.6867,VALID,36,VALID,1.14492,
2011-11-02, 01:57:04,VALID,996.267,VALID,0,VALID,93.6765,VALID,0,VALID,22.6672,VALID,36,VALID,1.10312,
2011-11-02, 01:58:04,VALID,996.246,VALID,0,VALID,93.6307,VALID,0,VALID,22.6477,VALID,36,VALID,1.01289,
2011-11-02, 01:59:04,VALID,996.225,VALID,0,VALID,93.5926,VALID,0,VALID,22.6477,VALID,36,VALID,0.900391,
2011-11-02, 02:00:04,VALID,996.216,VALID,0,VALID,93.5849,VALID,0,VALID,22.6477,VALID,36,VALID,0.695703,
2011-11-02, 02:01:04,VALID,996.201,VALID,0,VALID,93.5239,VALID,0,VALID,22.6087,VALID,36,VALID,0.280859,
2011-11-02, 02:02:04,VALID,996.213,VALID,0,VALID,93.4781,VALID,0,VALID,22.5696,VALID,36,VALID,0.212891,
2011-11-02, 02:03:04,VALID,996.171,VALID,0,VALID,93.4552,VALID,0,VALID,22.5306,VALID,36,VALID,0.708984,
2011-11-02, 02:04:04,VALID,996.19,VALID,0,VALID,93.5239,VALID,0,VALID,22.5696,VALID,36,VALID,1.00742,
2011-11-02, 02:05:04,VALID,996.182,VALID,0,VALID,93.5315,VALID,0,VALID,22.5501,VALID,36,VALID,0.642578,
2011-11-02, 02:06:04,VALID,996.2,VALID,0,VALID,93.5239,VALID,0,VALID,22.5111,VALID,36,VALID,0.236328,
2011-11-02, 02:07:04,VALID,996.211,VALID,0,VALID,93.4781,VALID,0,VALID,22.4331,VALID,36,VALID,0,
2011-11-02, 02:08:04,VALID,996.186,VALID,0,VALID,93.44,VALID,0,VALID,22.3746,VALID,36,VALID,0,
2011-11-02, 02:09:04,VALID,996.179,VALID,0,VALID,93.4476,VALID,0,VALID,22.3746,VALID,36,VALID,0,
2011-11-02, 02:10:04,VALID,996.15,VALID,0,VALID,93.4476,VALID,0,VALID,22.3551,VALID,36,VALID,0,
2011-11-02, 02:11:04,VALID,996.184,VALID,0,VALID,93.4781,VALID,0,VALID,22.3144,VALID,36,VALID,0,
2011-11-02, 02:12:04,VALID,996.155,VALID,0,VALID,93.5315,VALID,0,VALID,22.3339,VALID,36,VALID,0.226563,
2011-11-02, 02:13:04,VALID,996.181,VALID,0,VALID,93.6002,VALID,0,VALID,22.3534,VALID,36,VALID,0.166406,
2011-11-02, 02:14:04,VALID,996.136,VALID,0,VALID,93.646,VALID,0,VALID,22.3746,VALID,36,VALID,0.237109,
2011-11-02, 02:15:04,VALID,996.103,VALID,0,VALID,93.7223,VALID,0,VALID,22.3746,VALID,36,VALID,0.253906,
2011-11-02, 02:16:04,VALID,996.14,VALID,0,VALID,93.7451,VALID,0,VALID,22.3746,VALID,36,VALID,0.192969,
2011-11-02, 02:17:04,VALID,996.115,VALID,0,VALID,93.7451,VALID,0,VALID,22.3746,VALID,36,VALID,0.126563,
2011-11-02, 02:18:04,VALID,996.051,VALID,0,VALID,93.7985,VALID,0,VALID,22.3746,VALID,36,VALID,0.171094,
2011-11-02, 02:19:04,VALID,996.053,VALID,0,VALID,93.8291,VALID,0,VALID,22.3746,VALID,36,VALID,0.233594,
2011-11-02, 02:20:04,VALID,996.049,VALID,0,VALID,93.8825,VALID,0,VALID,22.3941,VALID,36,VALID,0.421484,
2011-11-02, 02:21:04,VALID,996.051,VALID,0,VALID,93.8901,VALID,0,VALID,22.4136,VALID,36,VALID,0.414844,
2011-11-02, 02:22:04,VALID,996.029,VALID,0,VALID,93.9283,VALID,0,VALID,22.4136,VALID,36,VALID,0.297656,
2011-11-02, 02:23:04,VALID,996.039,VALID,0,VALID,93.9435,VALID,0,VALID,22.3746,VALID,36,VALID,0.220313,
2011-11-02, 02:24:04,VALID,996.055,VALID,0,VALID,93.9435,VALID,0,VALID,22.3568,VALID,36,VALID,0.0648438,
2011-11-02, 02:25:04,VALID,996.063,VALID,0,VALID,93.9435,VALID,0,VALID,22.3373,VALID,36,VALID,0,
2011-11-02, 02:26:04,VALID,996.049,VALID,0,VALID,93.9588,VALID,0,VALID,22.3373,VALID,36,VALID,0,
2011-11-02, 02:27:04,VALID,996.023,VALID,0,VALID,93.9435,VALID,0,VALID,22.3178,VALID,36,VALID,0.275781,
2011-11-02, 02:28:04,VALID,996.021,VALID,0,VALID,93.9817,VALID,0,VALID,22.2983,VALID,36,VALID,0.393359,
2011-11-02, 02:29:04,VALID,996.061,VALID,0,VALID,93.9817,VALID,0,VALID,22.3178,VALID,36,VALID,0.363281,
2011-11-02, 02:30:04,VALID,996.049,VALID,0,VALID,94.0122,VALID,0,VALID,22.3568,VALID,36,VALID,0.351953,
2011-11-02, 02:31:04,VALID,996.03,VALID,0,VALID,94.0351,VALID,0,VALID,22.3958,VALID,36,VALID,0.376953,
2011-11-02, 02:32:04,VALID,996.075,VALID,0,VALID,94.058,VALID,0,VALID,22.4348,VALID,36,VALID,0.330078,
2011-11-02, 02:33:04,VALID,996.041,VALID,0,VALID,94.058,VALID,0,VALID,22.4348,VALID,36,VALID,0.546875,
2011-11-02, 02:34:04,VALID,996.056,VALID,0,VALID,94.0732,VALID,0,VALID,22.4933,VALID,36,VALID,0.666406,
2011-11-02, 02:35:04,VALID,996.017,VALID,0,VALID,94.0656,VALID,0,VALID,22.5519,VALID,79,VALID,0.889844,
2011-11-02, 02:36:04,VALID,996.008,VALID,0,VALID,94.0274,VALID,0,VALID,22.5909,VALID,99,VALID,0.799609,
2011-11-02, 02:37:04,VALID,996.009,VALID,0,VALID,93.9893,VALID,0,VALID,22.5501,VALID,99,VALID,0.538281,
2011-11-02, 02:38:04,VALID,996.003,VALID,0,VALID,93.9435,VALID,0,VALID,22.5909,VALID,99,VALID,0.402344,
2011-11-02, 02:39:04,VALID,996.043,VALID,0,VALID,93.8977,VALID,0,VALID,22.5714,VALID,99,VALID,0.423828,
2011-11-02, 02:40:04,VALID,996.015,VALID,0,VALID,93.8214,VALID,0,VALID,22.5519,VALID,99,VALID,0.353906,
2011-11-02, 02:41:04,VALID,996.018,VALID,0,VALID,93.7146,VALID,0,VALID,22.4933,VALID,99,VALID,0.382031,
2011-11-02, 02:42:04,VALID,996.016,VALID,0,VALID,93.6612,VALID,0,VALID,22.4738,VALID,99,VALID,0.446484,
2011-11-02, 02:43:04,VALID,996.007,VALID,0,VALID,93.6078,VALID,0,VALID,22.4738,VALID,99,VALID,0.510156,
2011-11-02, 02:44:04,VALID,995.984,VALID,0,VALID,93.6002,VALID,0,VALID,22.4933,VALID,99,VALID,0.430078,
2011-11-02, 02:45:04,VALID,995.994,VALID,0,VALID,93.6002,VALID,0,VALID,22.4933,VALID,99,VALID,0.646875,
2011-11-02, 02:46:04,VALID,995.976,VALID,0,VALID,93.6154,VALID,0,VALID,22.5128,VALID,69,VALID,0.795703,
2011-11-02, 02:47:04,VALID,995.976,VALID,0,VALID,93.6154,VALID,0,VALID,22.5519,VALID,92,VALID,0.822656,
2011-11-02, 02:48:04,VALID,995.967,VALID,0,VALID,93.6307,VALID,0,VALID,22.5714,VALID,92,VALID,0.447266,
2011-11-02, 02:49:04,VALID,995.971,VALID,0,VALID,93.5239,VALID,0,VALID,22.5128,VALID,82,VALID,0.558203,
2011-11-02, 02:50:04,VALID,996.031,VALID,0,VALID,93.4171,VALID,0,VALID,22.4738,VALID,78,VALID,0.584375,
2011-11-02, 02:51:04,VALID,996.015,VALID,0,VALID,93.3331,VALID,0,VALID,22.4153,VALID,342,VALID,0.645312,
2011-11-02, 02:52:04,VALID,996.063,VALID,0,VALID,93.2034,VALID,0,VALID,22.3763,VALID,342,VALID,0.504297,
2011-11-02, 02:53:04,VALID,996.059,VALID,0,VALID,93.0966,VALID,0,VALID,22.3161,VALID,343,VALID,0.298047,
2011-11-02, 02:54:04,VALID,996.045,VALID,0,VALID,93.0203,VALID,0,VALID,22.2576,VALID,343,VALID,0.148438,
2011-11-02, 02:55:04,VALID,996.088,VALID,0,VALID,92.9211,VALID,0,VALID,22.199,VALID,343,VALID,0.233594,
2011-11-02, 02:56:05,VALID,996.099,VALID,0,VALID,92.9593,VALID,0,VALID,22.16,VALID,342,VALID,0.517578,
2011-11-02, 02:57:05,VALID,996.093,VALID,0,VALID,93.1119,VALID,0,VALID,22.1795,VALID,342,VALID,0.672266,
2011-11-02, 02:58:05,VALID,996.09,VALID,0,VALID,93.1958,VALID,0,VALID,22.1405,VALID,359,VALID,0.825391,
2011-11-02, 02:59:05,VALID,996.083,VALID,0,VALID,93.3331,VALID,0,VALID,22.1584,VALID,359,VALID,0.74375,
2011-11-02, 03:00:05,VALID,996.089,VALID,0,VALID,93.4934,VALID,0,VALID,22.1795,VALID,359,VALID,0.760547,
2011-11-02, 03:01:05,VALID,996.098,VALID,0,VALID,93.5697,VALID,0,VALID,22.2186,VALID,354,VALID,0.641797,
2011-11-02, 03:02:05,VALID,996.104,VALID,0,VALID,93.6612,VALID,0,VALID,22.1795,VALID,351,VALID,0.547266,
2011-11-02, 03:03:05,VALID,996.072,VALID,0,VALID,93.7146,VALID,0,VALID,22.1779,VALID,351,VALID,0.276172,
2011-11-02, 03:04:05,VALID,996.083,VALID,0,VALID,93.7451,VALID,0,VALID,22.2186,VALID,351,VALID,0.258203,
2011-11-02, 03:05:05,VALID,996.073,VALID,0,VALID,93.8062,VALID,0,VALID,22.2186,VALID,351,VALID,0.212891,
2011-11-02, 03:06:05,VALID,996.038,VALID,0,VALID,93.8367,VALID,0,VALID,22.2381,VALID,351,VALID,0.1875,
2011-11-02, 03:07:05,VALID,996.044,VALID,0,VALID,93.8672,VALID,0,VALID,22.2381,VALID,351,VALID,0.101172,
2011-11-02, 03:08:05,VALID,996.055,VALID,0,VALID,93.8977,VALID,0,VALID,22.1795,VALID,351,VALID,0.308984,
2011-11-02, 03:09:05,VALID,996.034,VALID,0,VALID,93.9206,VALID,0,VALID,22.2381,VALID,351,VALID,0.432031,
2011-11-02, 03:10:05,VALID,996.002,VALID,0,VALID,93.9435,VALID,0,VALID,22.199,VALID,351,VALID,0,
2011-11-02, 03:11:05,VALID,996.021,VALID,0,VALID,93.9817,VALID,0,VALID,22.2186,VALID,351,VALID,0,
2011-11-02, 03:12:05,VALID,995.998,VALID,0,VALID,93.974,VALID,0,VALID,22.1389,VALID,351,VALID,0,
2011-11-02, 03:13:05,VALID,995.971,VALID,0,VALID,93.9817,VALID,0,VALID,22.1015,VALID,351,VALID,0,
2011-11-02, 03:14:05,VALID,995.97,VALID,0,VALID,93.9817,VALID,0,VALID,22.0625,VALID,351,VALID,0,
2011-11-02, 03:15:05,VALID,995.959,VALID,0,VALID,93.974,VALID,0,VALID,22.0235,VALID,351,VALID,0,
2011-11-02, 03:16:05,VALID,995.96,VALID,0,VALID,93.9969,VALID,0,VALID,22.004,VALID,351,VALID,0,
2011-11-02, 03:17:05,VALID,995.928,VALID,0,VALID,93.9893,VALID,0,VALID,21.9845,VALID,351,VALID,0,
2011-11-02, 03:18:05,VALID,995.92,VALID,0,VALID,94.0122,VALID,0,VALID,22.004,VALID,351,VALID,0,
2011-11-02, 03:19:05,VALID,995.918,VALID,0,VALID,94.0427,VALID,0,VALID,22.0235,VALID,351,VALID,0,
2011-11-02, 03:20:05,VALID,995.883,VALID,0,VALID,94.0656,VALID,0,VALID,22.0235,VALID,351,VALID,0,
2011-11-02, 03:21:05,VALID,995.872,VALID,0,VALID,94.1037,VALID,0,VALID,22.004,VALID,351,VALID,0.481641,
2011-11-02, 03:22:05,VALID,995.84,VALID,0,VALID,94.1037,VALID,0,VALID,21.965,VALID,351,VALID,0.269922,
2011-11-02, 03:23:05,VALID,995.853,VALID,0,VALID,94.0961,VALID,0,VALID,21.9277,VALID,351,VALID,0.191406,
2011-11-02, 03:24:05,VALID,995.856,VALID,0,VALID,94.119,VALID,0,VALID,21.9455,VALID,351,VALID,0,
2011-11-02, 03:25:05,VALID,995.817,VALID,0,VALID,94.1266,VALID,0,VALID,21.9845,VALID,351,VALID,0,
2011-11-02, 03:26:05,VALID,995.862,VALID,0,VALID,94.1495,VALID,0,VALID,22.0235,VALID,351,VALID,0,
2011-11-02, 03:27:05,VALID,995.817,VALID,0,VALID,94.1571,VALID,0,VALID,22.0837,VALID,351,VALID,0,
2011-11-02, 03:28:05,VALID,995.807,VALID,0,VALID,94.1648,VALID,0,VALID,22.1227,VALID,351,VALID,0,
2011-11-02, 03:29:05,VALID,995.811,VALID,0,VALID,94.18,VALID,0,VALID,22.1617,VALID,351,VALID,0,
2011-11-02, 03:30:05,VALID,995.798,VALID,0,VALID,94.2182,VALID,0,VALID,22.2007,VALID,351,VALID,0,
2011-11-02, 03:31:05,VALID,995.78,VALID,0,VALID,94.2029,VALID,0,VALID,22.2007,VALID,351,VALID,0,
2011-11-02, 03:32:05,VALID,995.779,VALID,0,VALID,94.2182,VALID,0,VALID,22.2007,VALID,351,VALID,0,
2011-11-02, 03:33:05,VALID,995.758,VALID,0,VALID,94.2258,VALID,0,VALID,22.1812,VALID,358,VALID,0.126563,
2011-11-02, 03:34:05,VALID,995.762,VALID,0,VALID,94.2258,VALID,0,VALID,22.199,VALID,76,VALID,0.809766,
2011-11-02, 03:35:05,VALID,995.753,VALID,0,VALID,94.2182,VALID,0,VALID,22.2186,VALID,100,VALID,0.854297,
2011-11-02, 03:36:05,VALID,995.755,VALID,0,VALID,94.2258,VALID,0,VALID,22.2576,VALID,100,VALID,0.80625,
2011-11-02, 03:37:05,VALID,995.745,VALID,0,VALID,94.2105,VALID,0,VALID,22.2966,VALID,100,VALID,0.767187,
2011-11-02, 03:38:05,VALID,995.748,VALID,0,VALID,94.2029,VALID,0,VALID,22.3339,VALID,100,VALID,0.687109,
2011-11-02, 03:39:05,VALID,995.753,VALID,0,VALID,94.1877,VALID,0,VALID,22.3729,VALID,100,VALID,0.619141,
2011-11-02, 03:40:05,VALID,995.742,VALID,0,VALID,94.1571,VALID,0,VALID,22.4526,VALID,100,VALID,0.648438,
2011-11-02, 03:41:05,VALID,995.797,VALID,0,VALID,94.1495,VALID,0,VALID,22.4721,VALID,130,VALID,0.526953,
2011-11-02, 03:42:05,VALID,995.783,VALID,0,VALID,94.1037,VALID,0,VALID,22.4916,VALID,135,VALID,0.588672,
2011-11-02, 03:43:05,VALID,995.805,VALID,0,VALID,94.058,VALID,0,VALID,22.5111,VALID,147,VALID,0.682031,
2011-11-02, 03:44:05,VALID,995.839,VALID,0,VALID,93.9664,VALID,0.104696,VALID,22.5501,VALID,155,VALID,0.829297,
2011-11-02, 03:45:05,VALID,995.842,VALID,0,VALID,93.8291,VALID,0,VALID,22.5892,VALID,161,VALID,1.00078,
2011-11-02, 03:46:05,VALID,995.87,VALID,0,VALID,93.6383,VALID,0,VALID,22.6672,VALID,154,VALID,1.37383,
2011-11-02, 03:47:05,VALID,995.853,VALID,0,VALID,93.2874,VALID,0,VALID,22.724,VALID,153,VALID,1.09375,